Weather observations for the past three days for
Mcguire Air Force Base
Imperial (Metric)
Date Time (edt) Wind (mph) Vis. (mi.) Weather Sky Cond. Temperature (ºF) Relative Humidity Wind Chill (°F) Heat Index (°F) Pressure Precipitation (in)
Air Dwpt 6 hour altimeter (in) sea level (mb) 1 hr 3 hr 6 hr
Max. Min.
25 12:55 W 12 10.00 Fair CLR 89.8 48.2 24% 87 29.91 1012.7
25 11:55 W 6 10.00 A Few Clouds FEW190 86.7 50.5 29% 84 29.92 1013.0
25 10:55 NW 10 10.00 Fair CLR 84.6 53.8 35% 83 29.94 1013.7
25 09:55 W 7 10.00 Fair CLR 81.5 55.6 41% 81 29.94 1013.7
25 08:55 NW 8 10.00 Fair CLR 78.1 55.6 46% 79 29.93 1013.4
25 07:55 W 8 10.00 Fair CLR 74.7 54.7 74.7 65.7 50% 29.92 1013.1
25 06:55 W 7 10.00 Fair CLR 70.9 52.3 52% 29.92 1013.1
25 05:55 W 8 10.00 Fair CLR 67.3 50.5 55% 29.93 1013.4
25 04:55 W 6 10.00 Fair CLR 67.1 50.4 55% 29.91 1012.7
25 03:55 W 3 10.00 Fair CLR 66.9 50.2 55% 29.89 1012.1
25 02:55 W 7 10.00 Fair CLR 69.8 49.8 49% 29.87 1011.4
25 01:55 W 7 10.00 Fair CLR 68.7 50.4 76.8 68.7 52% 29.86 1011.0
25 00:55 W 7 10.00 Fair CLR 72.1 49.6 45% 29.85 1010.7
24 23:55 W 9 10.00 Fair CLR 73 49.3 43% 29.84 1010.3
24 21:55 W 6 10.00 A Few Clouds FEW090 73.8 48.6 41% 29.81 1009.3
24 20:55 NW 10 10.00 Fair CLR 75.4 48.7 39% 78 29.79 1008.7
24 19:55 NW 16 G 23 10.00 Mostly Cloudy BKN075 BKN090 76.8 48.6 84 76.3 37% 78 29.77 1008.0
24 18:55 NW 16 G 24 10.00 A Few Clouds FEW065 78.3 49.1 36% 79 29.75 1007.3
24 17:55 N 18 G 29 10.00 Mostly Cloudy BKN075 77.9 50.2 38% 79 29.73 1006.6
24 16:55 N 16 G 28 10.00 Mostly Cloudy BKN070 81.9 49.8 33% 81 29.71 1005.9
24 15:55 NW 17 G 29 10.00 Mostly Cloudy BKN070 81.1 49.3 33% 80 29.7 1005.6
24 14:55 NW 21 G 31 10.00 A Few Clouds and Breezy FEW065 80.4 50.9 36% 80 29.71 1005.9
24 13:55 NW 18 G 26 10.00 Mostly Cloudy BKN060 81.5 53.4 84.6 78.1 38% 81 29.69 1005.3
24 12:55 W 23 G 30 10.00 Partly Cloudy and Breezy SCT050 81.5 54.1 39% 81 29.69 1005.3
24 11:55 W 18 G 28 10.00 A Few Clouds FEW050 81.7 55 40% 81 29.68 1004.9
24 10:55 NW 17 G 28 10.00 A Few Clouds FEW045 81.3 56.7 43% 81 29.66 1004.3
24 09:55 W 16 G 23 10.00 Fair CLR 80.6 59.5 49% 81 29.65 1003.9
24 08:55 NW 10 G 20 10.00 Fair CLR 79.3 60.1 52% 80 29.65 1003.9
24 07:55 W 8 10.00 Mostly Cloudy SCT075 BKN120 78.6 66.2 78.6 74.8 66% 81 29.64 1003.6
24 06:55 W 7 10.00 Mostly Cloudy BKN065 BKN095 77.2 67.5 72% 79 29.62 1002.9
24 05:55 W 8 10.00 Fair CLR 76.5 70.2 81% 78 29.61 1002.5
24 04:55 W 5 10.00 Partly Cloudy SCT055 76.5 72.3 87% 77 29.59 1001.8
24 03:55 W 8 10.00 A Few Clouds FEW050 FEW070 76.8 72.9 88% 78 29.59 1001.8
24 02:55 SW 10 10.00 Mostly Cloudy SCT080 BKN110 76.5 73.2 90% 77 29.59 1001.8
24 01:55 SW 9 10.00 Partly Cloudy FEW070 SCT095 76.1 72.5 77 74.3 89% 76 29.61 1002.5 0.1
24 00:55 SW 8 10.00 A Few Clouds FEW080 75.2 72.3 91% 74 29.6 1002.2
23 23:55 S 8 10.00 Mostly Cloudy BKN080 BKN100 74.7 72.1 92% 29.61 1002.5
23 22:55 S 10 10.00 Thunderstorm in Vicinity FEW080 BKN100 BKN160 74.7 71.1 89% 29.63 1003.2 0.07 0.1
23 21:55 S 3 10.00 Overcast BKN060 BKN100 OVC130 75.9 73.4 92% 76 29.61 1002.5
23 20:55 S 10 10.00 Thunderstorm in Vicinity SCT095 BKN130 75 72.1 91% 74 29.63 1003.2 0.03
23 19:55 SW 8 10.00 Mostly Cloudy FEW038 SCT060 BKN110 BKN150 77.2 72.7 99.7 73.9 86% 79 29.64 1003.6 0.2
23 18:55 SW 6 G 25 6.00 Thunderstorm Light Rain BKN046 BKN070 BKN085 BKN100 74.7 70.2 86% 29.65 1003.9 0.2
23 17:55 SW 17 G 24 10.00 A Few Clouds FEW210 93.7 67.1 42% 98 29.61 1002.5
23 16:55 SW 22 G 29 10.00 A Few Clouds and Breezy FEW060 94.8 65.1 38% 97 29.62 1002.9
23 15:55 SW 22 10.00 A Few Clouds and Breezy FEW065 97.2 66.4 37% 101 29.64 1003.5
23 14:55 W 16 G 30 10.00 Fair CLR 97.7 66.9 37% 102 29.66 1004.2
23 13:55 SW 20 10.00 A Few Clouds FEW060 FEW190 97.2 67.3 98.6 80.8 38% 102 29.68 1004.9
23 12:55 SW 18 G 28 10.00 A Few Clouds FEW170 97.5 66.7 37% 102 29.71 1005.9
23 10:55 SW 17 G 21 10.00 A Few Clouds FEW075 94.3 68.9 44% 100 29.74 1006.9
23 09:55 SW 14 10.00 Fair CLR 91 70.9 52% 97 29.77 1007.9
23 08:55 SW 18 10.00 Fair CLR 87.4 71.8 60% 94 29.79 1008.6
23 07:55 SW 10 10.00 Fair CLR 80.8 72.9 81.5 73.8 77% 85 29.8 1009.0
23 06:55 SW 10 10.00 Fair CLR 76.6 72.5 87% 78 29.82 1009.7
23 05:55 S 8 10.00 Fair CLR 74.5 71.2 90% 29.82 1009.6
23 04:55 S 5 10.00 Fair CLR 74.1 70.9 90% 29.84 1010.3
23 03:55 S 7 10.00 Fair CLR 74.8 70.7 87% 29.85 1010.6
23 02:55 S 5 10.00 Fair CLR 75 70.2 85% 75 29.87 1011.3
23 01:55 S 3 10.00 Fair CLR 75.4 69.8 87.3 75.4 83% 76 29.88 1011.7
23 00:55 Calm 10.00 Fair CLR 76.5 69.4 79% 78 29.89 1012.0
22 23:55 Calm 10.00 Fair CLR 78.3 68.4 72% 80 29.9 1012.3
22 22:55 Calm 10.00 Overcast OVC190 81.1 68.2 65% 84 29.91 1012.7
22 21:55 S 6 10.00 Fair CLR 82.9 68 61% 86 29.91 1012.7
22 20:55 Calm 10.00 Fair CLR 86 68.9 57% 90 29.9 1012.3
22 19:55 S 6 8.00 A Few Clouds FEW002 86 71.8 99.7 84.6 63% 92 29.89 1012.0
22 18:55 E 8 8.00 Mostly Cloudy BKN065 85.8 70.3 60% 91 29.89 1012.0
22 17:55 SW 5 10.00 Partly Cloudy SCT060 97.2 67.3 38% 102 29.88 1011.7
22 16:55 SW 8 10.00 Fair CLR 97 68.5 40% 103 29.89 1012.0
22 15:55 W 18 G 24 10.00 Light Drizzle SCT070 BKN170 94.6 67.3 41% 99 29.91 1012.7
22 14:55 SW 10 10.00 Mostly Cloudy BKN060 98.6 66.9 36% 103 29.92 1013.0
Date Time (edt) Wind (mph) Vis. (mi.) Weather Sky Cond. Air Dwpt Max. Min. Relative Humidity Wind Chill (°F) Heat Index (°F) altimeter (in) sea level (mb) 1 hr 3 hr 6 hr
6 hour
Temperature (ºF) Pressure Precipitation (in)